DMSP 5D-2 F11 DEB, 28333

Orbit data source: Space-Track

DMSP 5D-2 F11 DEB, 28333 is space debris in SSO originally from a launch on Thu, 28 Nov 1991 UTC launched from the Air Force Western Test Range (AFWTR). Debris objects in space refer to the collection of defunct objects orbiting the Earth. Examples of debris include non-operational satellites, rocket bodies, and fragments generated from explosions, collisions, or faulty payload assembly.

Loading next visibility...
Identifier
28333, 1991-082AW
Orbit
SSO
Country
Flag of USUS
Related business
Manufacturer
Unknown
Mission
Spacecraft
Bus & Motor
Unknown
Mass
Unknown
Launch date (UTC)
1991-11-28 (34 years ago)
Launch vehicle
Unknown
Launch site
Air Force Western Test Range (AFWTR)
Object type
Payload
Rocket body
Debris
Shape & HBR
Unknown shape, 0.1 m
Radar Cross Section
Small (<0.1 m²)

Expand to show TLE details & history
Last TLE update: 18 hours ago

TLE from 18 hours ago
0 DMSP 5D-2 F11 DEB
1 28333U 91082AW  25349.84007508  .00100194  00000-0  51056-2 0  9998
2 28333  98.5192 103.1110 0007446 273.6715 217.5916 15.16302082129869
Epoch: 2025-12-15T20:09Z
TLE epoch observation values (Epoch: 2025-12-15T20:09:42.486Z)
Latitude
48.1751°
Longitude
-94.4663°
Altitude
528.663 km
Speed
7.601 km/s
True Right ascension
19h 30m 46s
True Declination
47° 59' 54"
Sunlit
Object was in daylight at epoch
Visualization orbit readout
Latitude
Unknown
Longitude
Unknown
Altitude
Unknown
Speed
Unknown
Apparent Right ascension
Unknown
Apparent Declination
Unknown
Sunlit
N/A
Visualization observer readout
Local Sidereal Time
12:48:05
Azimuth
Unknown
Elevation
Unknown
Doppler factor
Unknown
Orbital elements
Apogee altitude
519.182 km
Perigee altitude
508.918 km
Semi-major axis
6,892.187 km
Eccentricity
0.00074
Inclination
98.5192°
RAAN
103.111°
Arg. of periapsis
273.6715°
True anomaly
217.53959°
Mean anomaly
217.5916°
Eccentric anomaly
217.56559°
Mean motion
3.79322 °/min
Orbital period
94.91 mins
BSTAR
0.0051056

Documentation

Showing up to 5 results
|